AstroCast 0.2 (44083 NORAD) Tracking and Keplerian Element Data

This shows tracking and keplerian element data for the satellite.

Feedback or suggestion? Click here.




ElementValue
Catalog44083
NameAstroCast 0.2
Epoch Orbit1648
Epoch Day199.73261296
Epoch Year2019
RAAN259.4787
Inclination97.4667
Eccentricity0.0012323
Argument of Perigee262.7565
Mean Anonmoly97.227
Mean Motion15.2139726
Decay Rate2.72E-06
L11 44083U 19018F 19199.73261296 .00000272 00000-0 15243-4 0 9993
L22 44083 97.4667 259.4787 0012323 262.7565 97.2270 15.21397260 16488

Live tracking and technical data element details for AstroCast 0.2 (NORAD 44083). AstroCast 0.2 can be tracked NOW for your location showing map with azimuth and elevation plus other details from your city location.

Track the satellite on the map from your city or location and see movement details for azimuth, elevation, latitude, longitude, range, height, and movement on the map or in text.







IsCatalogInMostPopularTable: catalog: 44083, numindb: 55
Update: records affected: 1



GetName: 44083 AstroCast 0.2

Hit Count: updated at: Sun, 21 Jul 2019 15:27:41 GMT